SCTE

El Tepual Airport

Airport
ICAO code
SCTE
IATA Code
PMC
Summary
ICAO Region
CARSAM
ICAO Territory
Location

Puerto Montt, Los Lagos

Serving
Puerto Montt
Elevation
294 ft
Coordinates
41° 26' 20" S , 73° 5' 38" W
KCC
Metar
SCTE 210632Z 00000KT 1200 R35/1700D BR VV003 M01/M01 Q1026 NOSIG

Airport serving the tourist area of Puerto Montt, Chile. The airport is approximately 10 km west north west of the city.

Climatology

Temperate oceanic climate (Köppen climate classification Cfb)

Runways

Designator Length Width Surface Rops
17/35 2650 45 CON Yes/Yes

Airport map

Aerial View

SKYbrary Partners:

Safety knowledge contributed by: